STARLINK-32271, 60368

Orbit data source: Space-Track

STARLINK-32271, 60368 is a payload satellite owned by SpaceX/Seattle (US) in LEO that was launched on Sun, 04 Aug 2024 UTC via an FALCON 9 launch vehicle from the Air Force Western Test Range (AFWTR). Payload-class satellites include a variety of spacecraft equipped with specific instruments for various scientific and technological missions. These include communications satellites like Starlink; space stations such as the ISS; scientific satellites like the Hubble; Earth observation satellites from companies like Planet Labs, Umbra, and HawkEye 360; GPS; miniature CubeSats for education and research; and military/defense satellites.

Loading next visibility...
Identifier
60368, 2024-138P
Orbit
LEO
Country
Flag of USUS
Related business
Manufacturer
SpaceX/Seattle
Mission
Operational Commercial Communications
Bus & Motor
STARLINK V2M, Unknown motor
Mass
730 kg wet, ~700 kg dry
Launch date (UTC)
2024-08-04 (1 year ago)
Launch vehicle
FALCON 9
Launch site
Air Force Western Test Range (AFWTR)
Object type
Payload
Rocket body
Debris
Shape & HBR
Box + 2 Pan, 17.7 m
Radar Cross Section
33.884 m², Large (>1 m²)

Expand to show TLE details & history
Last TLE update: 17 hours ago

TLE from 17 hours ago
0 STARLINK-32271
1 60368U 24138P   25353.61401471  .00000776  00000-0  38343-4 0  9998
2 60368  53.1628 321.8323 0001432  78.5036 281.6125 15.30191931 78363
Epoch: 2025-12-19T14:44Z
TLE epoch observation values (Epoch: 2025-12-19T14:44:10.870Z)
Latitude
-0.00009°
Longitude
12.3343°
Altitude
475.942 km
Speed
7.629 km/s
True Right ascension
21h 27m 19s
True Declination
0° 00' 00"
Sunlit
Object was in daylight at epoch
Visualization orbit readout
Latitude
Unknown
Longitude
Unknown
Altitude
Unknown
Speed
Unknown
Apparent Right ascension
Unknown
Apparent Declination
Unknown
Sunlit
N/A
Visualization observer readout
Local Sidereal Time
06:16:46
Azimuth
Unknown
Elevation
Unknown
Doppler factor
Unknown
Orbital elements
Apogee altitude
476.477 km
Perigee altitude
474.514 km
Semi-major axis
6,853.632 km
Eccentricity
0.00014
Inclination
53.1628°
RAAN
321.8323°
Arg. of periapsis
78.5036°
True anomaly
281.59643°
Mean anomaly
281.6125°
Eccentric anomaly
281.60446°
Mean motion
3.82527 °/min
Orbital period
94.11 mins
BSTAR
0.000038343
Loading maneuver chart data...
Computing Atmospheric mass density...
Loading historical data...
Loading historical data...
Loading historical data...
Loading historical data...
Loading historical data...
Loading historical data...
Loading historical data...

Documentation

Showing up to 5 results
|